Dewpoint
22 23 23 23 23 23 23 23 23 24 24 24 24 23 23 24 24 24 24 25 26 27 26 26 26 27 27 28 29 30 30 30 30 29 30 32 34 36 40 43 47 51 54 56 57 57 58 59 59 58 58 59 60 64 64 63 61 59 59 60 62 63 62 61 61 61 60 60 59 61 62 62 62 62 62 62 62 62 62 62 62 63 61 60 58 54 53 52 50 49 48 47 46 47 45 44 44 44 45 43 42 41 40
21 22 22 23 23 23 23 23 23 23 24 24 24 23 23 23 23 23 23 24 25 27 27 25 24 25 26 27 27 29 29 29 29 29 29 29 30 32 34 37 40 42 45 50 54 59 61 60 60 59 59 60 61 63 63 63 61 60 61 62 63 64 61 59 59 59 59 59 59 60 61 61 61 62 62 62 61 61 62 62 62 62 61 60 58 55 54 52 51 50 48 47 47 47 47 45 44 42 43 43 42 41 40
20 20 21 22 22 23 23 23 23 23 24 24 24 24 23 23 22 23 23 23 24 26 26 25 24 24 25 25 26 27 28 28 29 30 29 28 29 30 32 33 36 38 40 43 48 55 59 60 61 60 59 59 59 60 61 61 61 62 62 62 63 63 62 62 63 63 62 60 59 61 60 60 60 61 61 61 62 62 62 62 62 62 61 59 58 59 57 55 52 50 49 48 47 47 47 46 44 42 42 42 42 41 40
19 19 20 21 22 22 23 23 24 27 25 24 24 24 23 22 22 23 23 23 23 24 26 26 24 23 23 23 24 26 28 28 29 29 28 28 29 31 32 32 33 34 35 37 40 45 53 58 60 61 61 61 61 60 60 61 61 61 61 62 62 62 62 62 62 63 63 63 63 63 62 62 61 59 59 60 61 61 61 61 62 62 60 59 58 59 59 58 54 50 49 48 47 47 46 46 45 44 43 43 42 41 40
18 19 20 20 21 22 23 23 23 24 23 23 23 23 23 22 22 22 22 22 22 23 24 25 25 24 23 23 23 25 27 29 30 28 28 28 30 32 32 32 32 32 32 34 36 39 42 47 54 61 62 62 62 61 61 61 61 61 61 61 61 61 61 61 61 62 62 62 62 62 63 63 63 61 59 59 60 60 60 60 60 60 59 60 60 60 59 59 57 53 50 48 47 47 46 45 45 45 44 44 43 41 41
18 19 19 20 21 21 21 21 22 22 21 22 23 24 23 22 20 21 21 21 22 23 24 25 25 24 23 23 24 24 27 30 31 27 28 28 30 31 31 31 31 31 32 33 35 36 39 42 47 56 61 63 63 63 63 61 60 59 59 60 61 61 61 61 61 61 61 61 61 62 62 62 63 63 62 60 59 60 60 59 59 59 60 61 61 60 60 59 59 56 52 50 48 47 46 45 45 45 45 44 42 41 41
18 18 19 19 19 20 20 20 20 20 18 19 21 22 23 21 19 19 20 21 22 23 23 24 25 24 23 23 24 24 27 30 32 30 29 30 32 33 32 31 31 30 31 32 34 36 38 41 45 50 56 60 61 61 62 62 61 61 61 62 62 62 61 61 61 61 61 60 61 61 62 62 62 62 62 62 61 60 59 59 59 59 59 60 61 61 60 60 59 58 54 52 49 48 47 45 44 44 44 44 43 43 43
17 18 18 18 19 19 20 21 21 20 18 19 20 20 19 18 17 18 19 20 20 22 23 24 24 24 23 23 23 24 26 28 30 27 28 30 32 33 32 31 31 31 31 32 34 36 38 40 42 46 48 50 51 52 58 60 60 61 62 62 62 63 61 61 61 61 61 60 60 61 61 61 61 61 60 60 60 59 59 59 59 59 59 60 61 61 60 59 59 59 57 54 51 48 47 46 45 44 43 43 43 44 43
17 17 17 18 18 19 20 22 22 20 18 18 18 19 18 18 17 18 19 20 20 21 22 23 24 23 23 23 23 23 24 25 26 26 27 29 31 30 30 30 30 30 31 32 34 36 37 39 41 42 44 46 48 50 50 52 54 56 58 59 59 60 60 60 59 61 61 61 61 62 61 61 61 61 61 61 60 59 59 59 58 59 59 59 60 61 60 59 59 59 59 58 54 50 48 47 46 45 44 43 43 43 43
18 18 17 17 18 18 19 21 21 20 18 18 19 19 19 17 16 17 19 20 20 21 22 23 24 23 23 23 23 23 23 24 25 25 27 28 29 29 30 30 30 30 30 32 32 33 34 36 38 38 39 40 42 46 49 50 51 50 52 54 54 56 56 57 58 59 59 60 60 62 62 62 62 62 62 62 61 61 62 60 58 58 58 58 59 60 60 60 59 59 59 59 58 54 50 48 46 45 45 44 43 43 43
18 18 18 18 17 17 18 19 19 20 20 20 20 20 18 17 17 17 19 20 21 21 22 23 23 23 23 23 23 23 23 23 25 26 28 28 28 29 30 30 30 30 30 30 31 31 32 33 34 35 36 37 39 41 45 50 53 54 53 53 54 55 55 56 57 57 58 58 59 59 60 61 61 61 61 61 61 60 61 61 61 59 58 58 58 59 60 60 60 59 59 59 59 58 54 51 48 46 45 45 44 43 42
17 17 17 17 16 15 16 17 18 20 21 21 20 20 18 17 17 16 18 19 21 22 22 23 23 23 24 23 23 22 22 23 25 27 27 27 27 29 30 31 31 31 30 30 30 30 29 30 31 32 33 35 37 38 41 45 50 54 54 54 56 58 57 56 56 57 57 57 58 58 59 59 60 60 60 60 60 60 60 60 61 62 60 59 58 58 59 59 59 59 59 59 59 59 58 55 51 48 46 45 44 43 42
16 17 17 17 17 15 15 16 18 19 21 21 20 18 18 16 15 13 14 18 20 22 22 23 23 23 25 25 23 20 22 23 25 25 26 27 27 28 30 31 31 31 31 31 31 30 29 28 28 28 30 32 35 37 38 41 44 48 52 54 56 58 59 58 57 57 57 57 57 58 59 59 59 59 59 59 59 59 59 60 60 60 60 60 60 59 58 58 59 59 58 58 58 58 59 57 54 50 48 46 45 43 42
16 17 17 17 17 16 16 16 17 19 21 21 19 16 15 14 13 13 13 15 18 19 21 22 23 23 24 24 23 20 23 24 25 25 27 28 28 29 30 30 30 30 32 32 32 31 30 29 28 27 30 32 34 35 37 38 39 41 46 50 54 56 58 59 58 57 57 57 58 58 58 59 59 59 59 59 59 59 59 59 59 59 59 59 60 60 59 59 58 58 58 57 57 58 58 57 55 52 49 47 46 45 43
16 17 17 17 17 17 16 16 17 18 20 19 17 15 15 14 14 13 13 14 14 17 21 22 22 21 20 21 22 19 22 25 27 25 27 29 30 30 30 30 30 30 32 32 33 33 33 32 31 30 33 35 35 34 35 36 37 39 41 45 50 55 57 58 58 57 57 57 58 58 58 59 59 59 59 59 59 59 59 59 59 59 59 59 59 59 59 59 59 58 57 57 56 56 56 55 54 52 50 48 47 46 45
15 16 16 16 16 17 16 15 16 18 18 17 15 15 16 15 14 14 14 14 14 15 20 21 20 18 18 18 18 18 21 24 27 25 26 28 31 31 31 30 30 30 31 32 33 35 36 34 32 32 34 35 35 33 33 34 35 36 39 42 45 50 54 56 58 58 57 57 57 58 58 58 58 58 59 59 59 59 58 58 58 58 58 58 59 59 59 59 59 59 58 58 57 55 55 54 53 52 50 49 48 47 46
14 15 15 15 16 16 16 16 16 16 18 16 15 15 17 16 14 14 14 14 14 14 18 21 20 17 17 17 17 18 19 22 24 24 25 26 27 30 31 30 29 30 32 33 34 35 35 34 33 33 34 34 33 33 33 33 33 34 37 40 42 44 47 51 54 56 57 57 57 57 57 57 57 58 58 59 59 59 59 58 58 58 58 58 58 58 58 58 59 59 59 59 58 57 55 54 53 52 51 50 49 47 46
14 14 15 15 15 16 16 15 14 15 17 16 15 15 16 15 14 14 14 14 14 15 18 19 19 17 16 16 17 17 19 21 23 24 24 25 26 29 30 29 29 30 33 35 35 35 35 34 34 34 34 34 34 33 33 32 32 32 35 36 39 41 42 45 47 50 54 55 56 58 57 57 57 58 58 59 59 59 59 59 58 58 58 58 58 58 58 58 58 58 58 58 58 59 57 56 55 54 54 52 51 48 46
14 15 15 15 15 16 15 14 13 14 15 16 16 16 16 15 14 14 14 14 14 15 18 18 18 17 16 16 16 17 19 21 23 24 25 26 27 29 29 29 30 32 34 36 36 35 34 34 34 35 36 35 35 34 32 32 32 32 33 35 37 39 41 43 44 46 48 50 51 53 54 55 56 56 57 57 59 59 59 59 59 58 58 58 58 57 58 58 58 58 58 58 58 58 58 58 57 57 54 53 51 48 47
13 14 14 14 15 15 15 14 13 12 14 16 17 17 16 15 14 14 14 14 14 15 18 18 18 16 15 15 15 17 19 21 22 23 25 26 27 29 29 30 31 33 34 36 36 36 36 36 36 36 36 36 36 34 33 33 33 34 35 36 37 38 40 41 43 45 46 46 47 47 50 52 54 54 55 56 57 58 58 59 59 59 59 58 58 58 57 57 58 58 58 58 58 58 58 58 58 58 57 54 52 51 50
12 13 13 14 14 14 14 13 12 12 14 16 17 17 17 17 16 15 14 14 15 16 18 18 17 15 14 14 14 16 18 19 20 21 23 25 27 27 29 31 32 34 35 36 37 38 37 37 37 37 38 37 36 36 35 35 35 36 36 37 38 38 39 41 42 43 44 45 45 45 46 48 50 51 53 54 55 57 58 58 58 58 59 59 58 58 58 58 58 58 58 58 58 58 57 57 57 58 58 56 55 55 52
11 12 12 13 13 14 13 13 13 13 14 15 17 17 18 18 17 15 14 14 16 18 18 17 15 14 14 14 14 14 16 18 18 20 22 24 26 27 28 30 32 35 36 37 38 37 38 38 38 38 38 38 38 38 38 38 38 38 38 38 38 38 39 39 40 41 42 42 43 43 45 46 47 48 50 52 53 54 56 57 58 57 58 58 58 58 58 58 58 58 59 58 58 57 57 57 57 57 57 57 57 57 54
11 11 12 13 13 14 14 13 13 14 15 16 17 18 18 18 18 16 15 15 16 17 18 17 15 14 14 14 14 14 15 16 17 20 22 23 25 27 29 31 34 37 38 38 38 38 39 38 38 38 37 37 38 39 40 41 40 40 40 39 39 39 39 39 38 38 40 41 41 43 44 45 46 47 49 50 51 53 54 55 56 55 56 57 57 58 58 58 58 58 59 59 58 57 57 57 56 56 57 57 57 57 55
11 12 12 13 14 15 14 14 14 14 16 18 19 19 20 20 19 18 17 17 17 18 17 17 16 15 14 14 13 13 13 15 17 20 22 23 26 29 31 35 38 40 39 39 39 39 38 38 38 37 37 37 38 39 40 41 40 40 39 39 39 39 39 39 38 38 39 40 41 42 44 45 47 48 49 50 51 52 53 53 54 54 55 56 56 57 57 57 58 58 58 58 58 58 57 57 56 57 57 57 57 56 56
12 12 13 13 14 14 13 13 13 14 17 18 19 20 21 21 19 18 17 17 18 18 18 17 16 15 14 13 13 12 13 15 18 20 23 25 27 32 36 40 43 41 40 39 39 39 38 37 37 37 38 38 38 39 39 39 39 39 39 39 39 39 39 39 39 40 39 40 41 41 43 45 47 49 50 50 50 50 51 51 52 54 55 56 57 56 57 57 57 58 58 58 58 57 57 57 57 57 56 56 56 56 56
13 13 13 13 13 12 12 12 13 14 15 17 18 20 21 20 18 18 17 17 18 18 19 18 16 15 14 14 13 13 13 15 18 22 25 28 31 36 41 43 43 41 38 37 37 37 37 37 37 37 37 38 38 38 37 37 38 38 38 38 38 39 39 40 40 41 40 41 41 41 41 43 45 47 49 49 49 49 50 50 50 52 54 55 55 55 55 55 56 56 57 57 57 57 56 56 56 56 56 56 56 55 55
13 12 12 12 12 12 11 12 12 13 14 18 23 24 23 21 18 18 17 18 18 18 19 18 17 15 14 14 14 13 14 18 23 26 29 31 34 40 42 42 40 37 35 36 37 36 36 36 36 36 36 36 36 36 36 37 37 37 37 38 38 38 39 40 41 41 41 42 42 41 41 42 44 46 48 49 49 49 50 50 50 52 53 53 53 52 52 53 53 54 54 55 55 55 56 56 56 56 56 55 55 55 55
13 12 12 11 11 11 11 11 11 11 13 17 22 27 24 21 18 18 18 18 18 19 19 18 16 15 14 14 14 13 14 21 28 34 34 35 36 40 41 41 39 37 37 38 38 36 35 34 33 33 34 34 34 35 36 37 37 37 37 38 38 39 40 40 41 41 43 44 43 43 43 43 45 46 48 49 49 49 49 49 50 51 52 52 52 52 52 52 52 52 52 52 53 54 54 54 55 55 55 55 55 54 55
13 12 12 12 11 11 11 11 11 11 13 14 16 19 19 18 17 17 17 17 18 18 18 17 16 15 15 14 13 13 14 18 23 32 34 37 38 39 41 41 41 41 40 39 37 35 33 32 32 32 32 33 33 34 36 37 38 37 38 38 39 40 40 41 41 41 45 46 46 45 45 45 45 45 47 47 48 48 48 49 49 50 50 50 51 51 51 51 51 50 50 50 50 51 52 53 54 54 54 54 54 54 54
13 12 13 12 12 11 11 11 11 12 13 13 14 15 17 17 16 17 18 18 18 18 18 18 17 16 15 14 13 12 14 16 18 23 27 32 35 36 37 39 40 41 39 39 37 36 34 34 34 34 33 33 33 35 36 35 36 37 38 38 39 40 39 39 39 41 45 47 47 46 45 45 44 45 45 45 47 47 47 48 48 49 49 50 50 50 50 50 50 49 49 48 49 49 50 51 52 53 53 54 54 54 54
12 12 12 12 12 11 11 11 11 12 13 14 15 16 16 17 17 17 18 18 18 18 18 18 16 15 14 13 12 12 12 14 16 19 22 25 28 32 36 39 40 39 38 38 38 38 36 35 34 34 34 34 35 36 35 34 34 34 34 35 35 36 36 37 38 41 43 44 44 44 43 43 44 44 45 45 46 47 47 47 48 48 49 50 50 50 50 49 49 49 48 48 48 48 50 50 50 50 51 52 52 53 54
12 12 12 11 11 10 11 11 12 13 14 14 15 16 17 18 18 18 18 18 18 19 19 18 17 15 14 13 13 12 12 13 15 17 19 21 23 27 30 31 29 28 28 29 30 32 34 35 35 35 36 36 35 35 33 32 32 34 35 35 35 35 36 36 38 40 41 42 42 42 42 43 43 44 45 45 46 46 46 46 47 47 49 49 49 50 50 49 48 48 47 46 46 46 48 48 48 48 49 50 50 51 52
12 12 11 11 10 10 10 11 11 11 12 13 14 14 15 16 17 18 18 18 18 18 18 17 15 15 14 14 13 12 13 14 16 18 19 19 20 21 22 21 20 20 20 20 21 23 27 30 32 32 33 32 31 31 31 31 32 34 35 35 35 35 35 37 39 41 41 42 42 42 44 45 45 46 46 46 46 46 46 46 47 47 48 48 49 49 49 49 48 47 46 46 45 45 45 46 46 47 48 49 50 50 50
12 12 11 11 11 10 10 11 11 13 13 13 14 14 15 16 17 18 17 16 16 17 17 16 16 16 14 14 13 12 13 14 14 15 15 16 18 18 19 20 21 21 20 20 21 22 23 25 27 28 29 29 29 29 30 31 32 32 34 34 34 34 35 36 38 39 39 40 41 42 44 46 47 48 49 49 48 48 48 48 48 48 48 48 49 49 49 48 48 47 46 45 45 45 45 45 45 45 46 47 48 48 48
12 11 11 11 10 10 11 12 14 15 14 14 14 15 16 17 17 17 16 17 17 17 16 16 16 15 14 14 14 13 14 14 13 14 14 15 17 18 18 19 20 20 20 20 21 22 24 25 25 27 27 28 28 28 28 29 30 30 31 32 32 33 35 36 36 36 37 38 40 41 43 45 47 48 49 49 49 49 48 48 48 48 48 48 48 48 48 48 47 46 45 44 44 44 44 44 44 44 45 45 46 46 46
10 10 10 10 10 10 11 13 14 16 14 14 14 15 16 17 17 17 16 17 17 16 16 16 16 16 15 15 14 14 14 14 13 13 14 15 16 17 18 18 18 18 19 20 21 21 23 23 23 24 25 26 26 27 27 27 28 28 29 30 31 33 34 34 34 36 37 39 41 42 44 45 45 46 46 47 48 47 47 47 47 46 45 45 46 47 48 48 47 45 45 44 43 43 43 43 43 43 44 44 44 44 45
10 9 9 10 10 11 12 13 14 15 14 14 14 14 14 15 15 15 15 16 16 15 15 15 16 16 15 15 15 15 14 14 14 14 14 15 16 17 18 18 18 19 19 20 20 21 21 22 22 23 23 24 24 25 25 25 26 27 27 28 29 31 32 32 33 35 36 37 38 39 41 41 41 44 44 44 44 44 45 45 44 44 43 43 44 45 47 47 46 45 44 43 43 42 43 43 43 43 43 43 43 43 43
9 9 9 10 12 13 14 15 14 15 14 13 13 13 14 14 15 15 15 15 15 15 15 15 15 16 16 16 16 15 15 15 15 16 16 16 17 17 18 18 19 19 19 19 19 20 20 21 22 22 23 23 24 24 24 24 25 26 26 27 28 29 30 31 32 34 35 36 36 37 37 38 38 38 39 39 40 40 41 41 41 41 41 41 43 45 46 46 46 45 44 43 42 42 42 42 42 42 42 42 42 42 42
9 9 10 12 14 16 18 18 18 16 15 14 14 14 14 15 16 17 16 15 15 15 15 15 15 16 16 16 16 16 16 16 17 18 18 18 18 18 18 18 19 19 19 19 19 20 20 20 21 21 22 23 23 24 24 25 25 26 26 27 27 29 30 31 32 33 34 34 34 35 36 36 36 36 36 37 37 38 39 40 40 40 40 41 42 45 46 46 45 45 43 42 41 41 41 41 41 41 42 42 41 41 41
9 10 11 13 15 18 18 17 16 15 15 15 15 15 16 16 16 16 15 15 15 15 15 16 16 16 16 16 17 17 17 17 18 18 18 18 18 18 18 19 19 19 19 18 19 19 20 20 20 21 21 22 23 24 25 26 26 27 27 27 29 30 31 32 33 34 34 34 35 35 36 36 35 35 36 36 36 37 39 40 40 40 40 41 42 45 45 46 45 44 43 42 41 41 41 41 41 41 41 41 41 41 41
10 11 12 14 15 16 14 13 12 12 14 14 15 15 16 16 16 15 16 16 16 16 16 16 16 17 17 17 17 18 18 18 19 19 19 19 19 18 18 18 18 18 18 18 18 18 19 20 20 21 22 23 24 25 26 27 28 28 29 30 31 32 32 33 34 34 35 35 36 36 36 36 36 36 36 36 36 37 39 40 41 41 42 43 44 45 45 45 45 44 43 42 41 41 40 40 40 41 41 41 41 41 41
11 12 13 13 13 12 11 11 11 11 12 12 13 14 15 15 15 16 16 16 16 16 16 17 17 17 18 18 18 18 19 19 19 19 20 19 19 18 18 18 18 17 17 17 18 18 19 20 21 22 23 23 25 26 27 28 29 30 31 32 32 33 33 34 34 35 35 35 35 35 36 36 36 36 36 36 37 38 39 41 42 42 43 44 45 45 45 45 45 44 43 41 41 40 40 40 40 40 40 40 40 40 40
11 11 11 12 12 11 11 11 11 10 10 10 11 12 14 14 14 15 16 16 16 17 17 18 18 18 18 18 18 19 20 20 20 20 20 19 18 18 17 17 17 17 17 17 17 18 18 20 21 22 23 25 26 27 28 30 31 32 33 33 33 34 34 35 35 35 36 36 36 36 36 36 36 36 36 36 37 38 39 41 42 43 43 44 45 45 45 45 44 43 42 41 41 40 40 40 40 40 40 40 40 40 39
9 9 9 10 10 10 10 10 10 10 10 10 11 11 12 13 14 15 16 16 17 18 18 18 18 18 18 18 19 19 20 20 20 20 19 19 18 18 17 16 16 16 16 17 18 18 19 20 21 22 23 25 27 28 30 32 33 34 35 35 35 35 35 35 35 35 36 36 36 36 36 36 36 36 36 36 37 37 39 40 41 43 43 44 44 45 45 45 44 43 42 41 41 40 40 40 40 40 40 39 39 39 39
9 9 9 9 9 9 9 9 9 10 11 11 12 12 13 14 14 15 16 17 17 18 18 18 19 19 19 19 19 19 20 19 19 19 19 18 18 18 17 17 16 16 16 17 18 18 19 20 22 23 24 26 27 30 32 33 35 36 36 36 36 36 36 36 36 36 36 36 36 36 36 36 36 36 36 37 37 38 39 40 41 42 43 44 44 45 45 44 44 43 42 41 41 40 40 40 40 39 39 39 39 39 38
10 9 9 8 8 8 9 9 10 11 12 13 14 14 14 15 15 16 17 17 18 18 18 19 20 20 20 20 19 19 19 19 18 18 18 18 17 17 17 17 17 17 17 18 18 19 21 22 23 24 26 27 28 30 32 33 35 36 37 37 38 37 37 37 38 38 37 36 36 36 36 37 37 36 37 37 38 38 39 40 41 43 44 44 44 45 45 44 44 43 42 41 41 40 40 40 40 39 39 39 39 39 38
9 9 9 8 9 9 9 10 11 13 14 14 15 16 16 16 16 16 17 17 18 18 19 21 24 27 24 22 20 19 19 18 18 18 18 17 17 17 17 16 16 17 17 18 18 20 22 23 25 27 28 29 30 31 32 32 34 35 36 38 39 39 39 39 39 38 38 37 36 36 37 37 38 37 39 39 39 39 39 41 42 44 45 45 45 45 44 44 44 43 42 41 41 40 40 40 39 39 39 39 39 38 38
9 9 9 9 9 10 11 12 14 14 15 16 16 16 16 16 16 16 16 17 18 18 19 23 28 32 26 22 19 18 18 18 17 17 17 17 17 17 17 17 17 17 18 18 19 20 22 23 25 27 29 31 32 32 32 32 33 34 36 37 38 39 39 39 39 39 38 38 38 38 39 39 40 40 40 41 41 41 41 42 43 44 45 45 44 44 44 44 43 43 42 41 41 41 40 39 39 39 39 39 38 38 38
10 10 10 10 10 11 13 14 15 16 16 17 17 16 16 15 15 15 16 16 17 18 18 23 29 32 24 20 19 19 18 18 17 17 18 18 17 17 17 17 18 18 18 19 20 21 22 23 25 27 28 29 31 32 32 32 33 34 36 37 38 39 39 39 39 40 39 39 39 40 40 40 40 40 41 41 41 41 42 43 43 44 44 44 44 45 44 44 43 43 42 41 41 41 40 40 39 39 39 39 38 38 37
11 11 12 13 14 14 16 16 16 16 18 19 19 16 15 15 15 15 16 16 17 18 18 19 21 22 20 20 20 20 19 18 18 18 18 18 18 17 18 18 18 19 20 20 21 22 23 24 25 26 27 27 28 29 30 31 32 33 36 37 38 38 39 39 39 39 39 39 40 40 40 40 40 40 40 40 40 41 41 42 42 43 43 44 44 44 43 42 42 41 42 41 41 41 40 40 40 39 39 39 38 37 37
12 12 14 15 17 18 18 18 17 18 18 19 19 19 16 15 15 15 16 17 18 18 18 18 19 19 19 20 20 20 19 18 18 18 18 18 18 18 18 19 19 20 21 22 23 23 24 25 25 25 26 27 27 28 28 30 31 32 35 36 37 38 38 38 38 39 39 39 39 40 40 40 40 40 40 40 40 40 41 41 42 42 43 44 44 43 42 41 41 41 41 41 41 41 40 40 40 39 39 38 38 37 37
12 13 15 17 18 18 18 18 17 17 17 16 16 17 16 15 15 16 17 18 18 18 18 19 19 19 19 20 21 20 19 18 18 18 18 19 19 19 20 20 21 22 22 23 24 24 25 25 26 26 26 27 27 28 28 29 30 32 34 36 37 37 38 38 38 38 39 38 38 39 39 39 39 39 39 39 40 40 41 41 42 42 43 44 44 43 41 41 40 40 40 40 40 41 40 40 39 39 39 38 38 37 37
12 13 14 16 17 17 17 17 15 13 13 14 15 18 17 17 17 18 19 19 19 19 19 19 19 19 20 21 21 20 19 19 20 21 21 22 21 21 21 21 22 23 23 24 25 26 26 26 27 27 27 27 27 27 28 29 31 32 33 35 37 37 37 38 38 38 38 38 38 38 38 38 38 38 38 39 40 41 42 42 43 43 44 44 43 42 41 41 40 40 40 40 39 39 40 40 39 39 38 38 38 38 37
11 11 12 13 14 15 14 13 12 12 13 15 16 17 18 19 20 21 22 21 21 20 19 19 19 19 20 21 21 19 23 26 28 29 30 27 24 23 22 22 23 24 25 26 26 27 27 27 27 27 27 27 27 27 29 31 32 33 34 35 36 37 37 37 36 36 36 37 37 37 37 37 37 38 38 39 39 40 41 41 42 42 43 43 42 41 41 41 40 40 40 39 39 39 39 39 39 38 38 38 38 38 37
10 10 10 11 11 12 11 11 12 13 15 17 19 21 22 23 23 23 23 22 21 20 19 18 18 18 18 19 20 20 27 31 33 33 33 29 25 24 24 25 25 26 27 27 27 27 28 28 28 27 27 28 28 29 31 32 32 32 35 36 36 36 36 36 35 36 36 36 36 36 37 37 37 37 37 38 39 39 40 41 41 41 42 42 42 41 41 41 40 40 40 39 38 38 38 38 38 38 38 37 37 37 37
10 11 11 10 10 11 12 13 15 17 19 21 23 23 24 24 23 23 22 20 19 18 17 17 17 17 16 18 19 20 27 31 32 32 31 29 29 31 30 29 28 28 27 27 28 28 29 29 29 28 29 29 30 31 32 32 32 33 34 34 34 35 35 34 34 34 35 35 36 36 36 36 36 36 37 37 38 39 39 40 40 41 41 42 42 41 40 40 40 40 39 39 38 37 37 37 37 37 37 37 37 37 37
11 12 12 12 13 14 15 17 19 21 23 23 24 23 23 22 21 20 19 18 17 16 16 16 16 15 16 17 18 18 19 20 22 25 27 30 32 33 32 30 29 28 28 28 28 29 30 30 30 29 30 30 30 31 31 32 32 33 33 32 32 33 33 34 33 33 34 35 35 35 36 36 36 36 37 37 38 39 39 40 40 41 41 41 41 40 40 40 40 40 39 38 37 37 36 37 37 37 37 37 37 36 36
12 12 13 14 15 17 18 20 22 23 23 23 22 21 20 18 18 17 16 15 15 15 16 16 16 16 17 18 18 19 19 20 21 23 25 28 31 31 31 30 30 29 29 30 30 30 30 30 31 31 31 31 31 31 31 31 31 31 32 32 32 32 33 33 33 33 33 34 34 35 35 36 36 36 36 37 37 38 39 40 40 40 41 41 41 39 40 39 39 39 38 37 36 36 36 36 36 36 36 36 36 36 35
13 14 15 16 18 19 21 22 22 22 22 21 19 18 16 15 14 14 14 14 15 15 16 17 17 18 18 18 19 19 19 20 20 20 22 24 27 29 32 32 32 32 32 32 30 30 30 31 31 32 32 33 33 32 32 31 31 30 31 31 32 32 32 32 32 32 33 34 34 35 36 36 36 36 37 37 38 38 39 39 40 41 42 41 40 39 39 38 38 37 37 36 36 35 36 36 36 36 36 36 36 35 34